[[{"header":{"parameterUnit":"m.s-1","parameterCategory":1,"la1":30.2991,"la2":30.254,"lo1":-89.0895,"lo2":-89.0444,"dy":0.0017,"dx":0.0017,"nx":28,"ny":28,"refTime":"2024-08-09T03:00:00:Z","depth":0,"parameterNumber":2,"parameterNumberName":"U-component_of_WINDS"},"data":[0,0,0,0,0,0,0,0,0,0,0,0,0,0,0,0,0,0,0,0,0,0,0,0,0,0,0,0,0,0,0,0,0,0,0,0,0,0,0,0,0,0,0,0,0,0,0,0,0,0,0,0,0,0,0,0,0,0,-0.7269,-0.7269,0,-0.7228,-0.7227,-0.7227,-0.7165,-0.7164,-0.7162,-0.7161,-0.7119,-0.7119,-0.7119,0,0,0,0,0,0,0,0,0,0,0,0,0,-0.7292,-0.7292,-0.7269,-0.7269,-0.7268,-0.7228,-0.7227,-0.7227,-0.7165,-0.7163,-0.7162,-0.7161,-0.7119,-0.7119,-0.7119,0,0,0,0,0,0,0,0,0,0,0,0,0,-0.7269,-0.7292,-0.7269,-0.7232,-0.7229,-0.7228,-0.7227,-0.7227,-0.7165,-0.7163,-0.7162,-0.716,-0.7119,-0.7119,-0.7119,-0.7151,0,0,-0.7118,-0.7118,0,0,0,0,0,0,0,0,-0.7271,-0.7269,-0.7238,-0.7235,-0.7231,-0.72,-0.722,-0.7201,-0.7166,-0.7189,-0.7161,-0.7159,-0.7147,-0.7144,-0.714,-0.7149,-0.7147,-0.7118,-0.7118,-0.7118,-0.7118,0,0,0,0,0,0,0,-0.7272,-0.727,-0.7253,-0.7238,-0.7233,-0.7217,-0.7212,-0.7216,-0.7178,-0.7187,-0.7182,-0.7178,-0.7145,-0.7141,-0.7139,-0.7146,-0.7118,-0.7118,-0.7118,-0.7118,-0.7175,-0.7177,0,0,0,0,0,0,-0.728,-0.7272,-0.7254,-0.7252,-0.7247,-0.7218,-0.7212,-0.7211,-0.7178,-0.7171,-0.718,-0.7176,-0.7142,-0.7139,-0.7137,-0.7171,-0.7118,-0.7118,-0.7118,-0.7174,-0.7175,-0.7177,0,0,0,0,0,0,-0.728,-0.7279,-0.7256,-0.726,-0.7256,-0.7219,-0.7219,-0.7211,-0.7207,-0.7172,-0.7165,-0.7183,-0.714,-0.7137,-0.7147,-0.7169,-0.7118,-0.7118,-0.7172,-0.7174,-0.7176,-0.724,0,0,0,0,0,0,-0.7281,-0.7279,-0.7292,-0.7261,-0.7256,-0.7268,-0.722,-0.7212,-0.7207,-0.7201,-0.7173,-0.7167,-0.7139,-0.7148,-0.7147,-0.7167,-0.7117,-0.717,-0.7173,-0.7176,-0.7236,-0.7244,-0.7252,0,0,0,0,0,-0.7282,-0.7312,-0.7293,-0.7291,-0.7272,-0.7269,-0.7266,-0.7233,-0.7209,-0.7221,-0.7198,-0.7168,-0.7166,-0.7149,-0.7148,-0.7169,-0.7168,-0.7172,-0.7175,-0.7232,-0.7243,-0.7251,0,0,0,0,0,0,-0.7348,-0.7308,-0.7286,-0.7307,-0.7292,-0.7259,-0.7273,-0.7246,-0.7237,-0.7232,-0.7191,-0.7185,-0.72,-0.7185,-0.7167,-0.7196,-0.7162,-0.7166,-0.7206,-0.7215,-0.7223,-0.7227,-0.7117,0,0,0,0,0,-0.7365,-0.7367,-0.7331,-0.7353,-0.7346,-0.7311,-0.7309,-0.7284,-0.7267,-0.726,-0.7238,-0.7222,-0.7217,-0.7215,-0.7209,-0.7232,-0.7224,-0.7246,-0.7254,-0.726,-0.7264,-0.7273,-0.7281,-0.7189,-0.7189,-0.7189,0,0,-0.74,-0.7378,-0.7382,-0.7366,-0.7351,-0.7353,-0.7306,-0.7311,-0.7311,-0.7261,-0.7269,-0.7251,-0.723,-0.7246,-0.7252,-0.7234,-0.7287,-0.7265,-0.727,-0.7271,-0.7277,-0.7286,-0.7294,-0.7192,-0.7191,-0.7191,0,0,-0.7465,-0.7449,-0.7465,-0.745,-0.7428,-0.7403,-0.7407,-0.7377,-0.7363,-0.737,-0.7331,-0.733,-0.7324,-0.731,-0.7302,-0.7357,-0.7328,-0.7356,-0.7397,-0.7406,-0.7414,-0.742,-0.7438,-0.7446,-0.7359,-0.736,-0.736,0,-0.7512,-0.7514,-0.7476,-0.7482,-0.7475,-0.7428,-0.7443,-0.743,-0.7407,-0.7403,-0.7383,-0.7371,-0.7354,-0.7365,-0.7378,-0.7373,-0.7375,-0.736,-0.7416,-0.7421,-0.7427,-0.7444,-0.7451,-0.7363,-0.7363,-0.7362,-0.7362,0,-0.7571,-0.7573,-0.7588,-0.7566,-0.756,-0.7571,-0.7534,-0.7532,-0.7507,-0.7484,-0.749,-0.7466,-0.7454,-0.7454,-0.743,-0.7461,-0.745,-0.7423,-0.7388,-0.744,-0.7455,-0.7461,-0.7368,-0.7367,-0.7366,-0.7365,0,0,-0.768,-0.7635,-0.7641,-0.7629,-0.7599,-0.7599,-0.7606,-0.7593,-0.7592,-0.7576,-0.758,-0.7573,-0.7547,-0.7538,-0.7512,-0.7519,-0.7562,-0.7491,-0.749,-0.7505,-0.7592,-0.7613,-0.7621,-0.7542,-0.7543,-0.7544,-0.7594,0,-0.774,-0.775,-0.7715,-0.7733,-0.7733,-0.7686,-0.7691,-0.7673,-0.765,-0.7646,-0.762,-0.7616,-0.7583,-0.7577,-0.7582,-0.7556,-0.7579,-0.7552,-0.7544,-0.7545,-0.7552,-0.763,-0.7652,-0.7701,-0.76,-0.7601,-0.7601,0,-0.7812,-0.7799,-0.7818,-0.7783,-0.7782,-0.7788,-0.7771,-0.7768,-0.7744,-0.7727,-0.7715,-0.7683,-0.7685,-0.7651,-0.7652,-0.7634,-0.7628,-0.7614,-0.7615,-0.7614,-0.7577,-0.7631,-0.7715,-0.7723,-0.7611,-0.761,-0.7609,0,-0.7889,-0.7876,-0.7885,-0.7876,-0.7837,-0.7842,-0.7825,-0.78,-0.7793,-0.7778,-0.7773,-0.7758,-0.775,-0.7739,-0.7703,-0.7681,-0.7708,-0.7671,-0.7693,-0.7694,-0.7702,-0.7702,-0.7787,-0.7697,-0.7697,-0.7697,-0.7697,0,-0.796,-0.7973,-0.7918,-0.7924,-0.7936,-0.7894,-0.7907,-0.7886,-0.7863,-0.7862,-0.7819,-0.7819,-0.7772,-0.7765,-0.7737,-0.7741,-0.7738,-0.7723,-0.7716,-0.7728,-0.773,-0.7724,-0.772,-0.7699,-0.7699,-0.7698,-0.7698,0,-0.8049,-0.8013,-0.802,-0.7981,-0.7971,-0.7982,-0.7948,-0.795,-0.7923,-0.7923,-0.792,-0.7878,-0.7869,-0.7831,-0.7812,-0.7793,-0.7806,-0.7791,-0.7814,-0.781,-0.7833,-0.7832,-0.7919,-0.7927,-0.7832,-0.7833,-0.7834,0,-0.8098,-0.8106,-0.8067,-0.8064,-0.8049,-0.8044,-0.8036,-0.7993,-0.7986,-0.7958,-0.7963,-0.795,-0.7937,-0.7923,-0.789,-0.7875,-0.7859,-0.789,-0.7857,-0.7867,-0.7859,-0.7859,-0.7859,-0.7899,-0.79,-0.7901,-0.7902,0,-0.8187,-0.8167,-0.8158,-0.8142,-0.8133,-0.8118,-0.8101,-0.81,-0.8051,-0.8046,-0.8035,-0.8025,-0.8004,-0.7991,-0.7969,-0.795,-0.7918,-0.7912,-0.7916,-0.7929,-0.7942,-0.7934,-0.7835,-0.7911,-0.791,-0.7909,-0.7909,-0.7908,-0.8257,-0.8261,-0.8234,-0.8224,-0.8205,-0.8189,-0.8189,-0.8161,-0.8151,-0.8131,-0.8106,-0.8097,-0.8069,-0.8037,-0.802,-0.8012,-0.7994,-0.8,-0.8002,-0.8004,-0.801,-0.7942,-0.8008,-0.8007,-0.8007,-0.8007,-0.8007,0,-0.8343,-0.8322,-0.8313,-0.8289,-0.8281,-0.8249,-0.8227,-0.8222,-0.8215,-0.8192,-0.8179,-0.8165,-0.815,-0.8115,-0.8096,-0.8096,-0.8081,-0.8093,-0.8093,-0.8089,-0.8027,-0.8025,-0.8106,-0.8106,-0.8106,-0.8106,-0.8106,-0.8106,-0.8388,-0.8393,-0.837,-0.8364,-0.8343,-0.8335,-0.8324,-0.8308,-0.8289,-0.8275,-0.8262,-0.8239,-0.821,-0.8188,-0.8172,-0.8162,-0.8157,-0.8174,-0.8159,-0.8103,-0.8093,-0.8084,-0.8082,-0.8174,-0.8174,-0.8221,-0.8222,-0.8222]},{"header":{"parameterUnit":"m.s-1","parameterCategory":1,"la1":30.2991,"la2":30.254,"lo1":-89.0895,"lo2":-89.0444,"dy":0.0017,"dx":0.0017,"nx":28,"ny":28,"refTime":"2024-08-09T03:00:00:Z","depth":0,"parameterNumber":3,"parameterNumberName":"V-component_of_WINDS"},"data":[0,0,0,0,0,0,0,0,0,0,0,0,0,0,0,0,0,0,0,0,0,0,0,0,0,0,0,0,0,0,0,0,0,0,0,0,0,0,0,0,0,0,0,0,0,0,0,0,0,0,0,0,0,0,0,0,0,0,-4.0464,-4.0462,0,-4.0342,-4.0341,-4.034,-4.021,-4.0208,-4.0207,-4.0205,-4.0078,-4.0077,-4.0075,0,0,0,0,0,0,0,0,0,0,0,0,0,-4.0579,-4.0577,-4.0464,-4.0462,-4.0461,-4.0343,-4.0341,-4.0339,-4.0211,-4.0208,-4.0206,-4.0204,-4.0079,-4.0077,-4.0075,0,0,0,0,0,0,0,0,0,0,0,0,0,-4.05,-4.0577,-4.0464,-4.0382,-4.0374,-4.0343,-4.0341,-4.0339,-4.0211,-4.0208,-4.0205,-4.0203,-4.008,-4.0077,-4.0075,-4.0114,0,0,-4.0067,-4.0066,0,0,0,0,0,0,0,0,-4.0505,-4.0496,-4.0396,-4.0388,-4.0378,-4.0289,-4.0335,-4.0264,-4.0212,-4.0273,-4.0205,-4.0202,-4.015,-4.0142,-4.0125,-4.0108,-4.0103,-4.0067,-4.0065,-4.0064,-4.0064,0,0,0,0,0,0,0,-4.051,-4.0501,-4.0416,-4.0394,-4.0384,-4.035,-4.0336,-4.0321,-4.0228,-4.0267,-4.0258,-4.0245,-4.0145,-4.0128,-4.0121,-4.0101,-4.0067,-4.0065,-4.0063,-4.0062,-4.0104,-4.0106,0,0,0,0,0,0,-4.0529,-4.0506,-4.0419,-4.0412,-4.0436,-4.035,-4.0334,-4.032,-4.0228,-4.0212,-4.0248,-4.0239,-4.0134,-4.0124,-4.0116,-4.0152,-4.0064,-4.0062,-4.0061,-4.0101,-4.0105,-4.0107,0,0,0,0,0,0,-4.0532,-4.0522,-4.0424,-4.0456,-4.0441,-4.0351,-4.0336,-4.0319,-4.0302,-4.0213,-4.0196,-4.0247,-4.0131,-4.012,-4.0114,-4.0146,-4.0061,-4.0059,-4.0098,-4.0102,-4.0106,-4.0228,0,0,0,0,0,0,-4.0536,-4.0524,-4.054,-4.0458,-4.044,-4.0427,-4.0338,-4.0319,-4.0298,-4.0287,-4.0208,-4.0193,-4.0128,-4.0119,-4.0112,-4.0141,-4.0057,-4.0095,-4.01,-4.0105,-4.0221,-4.0236,-4.0248,0,0,0,0,0,-4.054,-4.058,-4.0541,-4.0532,-4.0458,-4.0429,-4.0419,-4.0344,-4.0302,-4.0315,-4.0257,-4.0195,-4.0144,-4.012,-4.0111,-4.014,-4.0093,-4.0099,-4.0104,-4.0215,-4.0233,-4.0248,0,0,0,0,0,0,-4.0668,-4.0568,-4.0524,-4.0538,-4.0493,-4.0407,-4.0423,-4.0366,-4.0332,-4.0322,-4.023,-4.0214,-4.0218,-4.0178,-4.0153,-4.017,-4.0109,-4.0114,-4.0196,-4.0213,-4.0226,-4.0235,-4.0055,0,0,0,0,0,-4.0698,-4.0685,-4.0597,-4.0618,-4.0597,-4.0514,-4.0499,-4.0445,-4.0394,-4.0374,-4.0316,-4.0268,-4.024,-4.0224,-4.0195,-4.0214,-4.0193,-4.0229,-4.0243,-4.0255,-4.026,-4.0262,-4.0276,-4.0127,-4.0127,-4.0126,0,0,-4.076,-4.0703,-4.07,-4.0642,-4.06,-4.0586,-4.0499,-4.0489,-4.0476,-4.0372,-4.0363,-4.0319,-4.0258,-4.0265,-4.0264,-4.0232,-4.0296,-4.0263,-4.0273,-4.027,-4.0269,-4.0284,-4.0296,-4.0131,-4.013,-4.0129,0,0,-4.0864,-4.0822,-4.0832,-4.0792,-4.073,-4.0674,-4.0677,-4.0598,-4.0565,-4.0554,-4.0474,-4.0457,-4.0413,-4.0372,-4.0346,-4.043,-4.037,-4.0423,-4.0495,-4.0498,-4.051,-4.052,-4.0546,-4.0557,-4.0428,-4.0428,-4.0428,0,-4.0948,-4.0925,-4.0845,-4.0838,-4.0813,-4.0718,-4.0726,-4.0691,-4.0623,-4.0606,-4.0571,-4.051,-4.0463,-4.0456,-4.0476,-4.0459,-4.0456,-4.0431,-4.0515,-4.0524,-4.0532,-4.0556,-4.0567,-4.0435,-4.0434,-4.0433,-4.0433,0,-4.103,-4.1014,-4.103,-4.0966,-4.0943,-4.0944,-4.0861,-4.0847,-4.0794,-4.0741,-4.0728,-4.0668,-4.0623,-4.0617,-4.0566,-4.0601,-4.0582,-4.0533,-4.0469,-4.0554,-4.0575,-4.0584,-4.0444,-4.0442,-4.044,-4.0438,0,0,-4.1213,-4.1102,-4.1109,-4.1076,-4.1,-4.0985,-4.098,-4.0935,-4.0923,-4.0878,-4.0869,-4.0832,-4.0784,-4.0754,-4.0696,-4.07,-4.0765,-4.0648,-4.0645,-4.0669,-4.0795,-4.0832,-4.0844,-4.0725,-4.0727,-4.0728,-4.0799,0,-4.1302,-4.1288,-4.1214,-4.1221,-4.1204,-4.1111,-4.1106,-4.1057,-4.1006,-4.0982,-4.0925,-4.0899,-4.0839,-4.0819,-4.0819,-4.0758,-4.0789,-4.0752,-4.0713,-4.0712,-4.0729,-4.0856,-4.0895,-4.0966,-4.0807,-4.0809,-4.081,0,-4.1404,-4.1365,-4.1371,-4.129,-4.128,-4.1277,-4.1227,-4.1207,-4.1147,-4.1109,-4.1074,-4.1009,-4.0995,-4.0936,-4.0913,-4.0889,-4.0868,-4.0836,-4.0836,-4.0828,-4.0765,-4.0849,-4.0987,-4.0996,-4.0822,-4.0821,-4.082,0,-4.1533,-4.1482,-4.1477,-4.1453,-4.136,-4.1359,-4.132,-4.1258,-4.1234,-4.119,-4.1173,-4.1129,-4.1103,-4.1069,-4.0992,-4.0957,-4.0975,-4.0912,-4.094,-4.0942,-4.0948,-4.0948,-4.1082,-4.0939,-4.0939,-4.0939,-4.0938,0,-4.1639,-4.1646,-4.1533,-4.1531,-4.1533,-4.1447,-4.1451,-4.1402,-4.1347,-4.1331,-4.1248,-4.1234,-4.1134,-4.1108,-4.1047,-4.1034,-4.1025,-4.0991,-4.0974,-4.0997,-4.1001,-4.0981,-4.0973,-4.0941,-4.0941,-4.094,-4.094,0,-4.1784,-4.171,-4.1698,-4.161,-4.1588,-4.1593,-4.1516,-4.1508,-4.1451,-4.1431,-4.1421,-4.1332,-4.1295,-4.1215,-4.1158,-4.1117,-4.1118,-4.109,-4.1138,-4.1127,-4.1159,-4.1157,-4.1284,-4.1294,-4.1148,-4.1149,-4.115,0,-4.1856,-4.1858,-4.177,-4.1753,-4.1717,-4.1692,-4.1667,-4.1581,-4.1557,-4.1487,-4.1487,-4.1444,-4.1405,-4.1351,-4.1279,-4.1233,-4.1201,-4.1249,-4.1194,-4.1215,-4.1198,-4.1198,-4.1195,-4.1261,-4.1263,-4.1264,-4.1266,0,-4.199,-4.1952,-4.192,-4.1874,-4.1846,-4.1806,-4.176,-4.1751,-4.1653,-4.163,-4.1592,-4.1562,-4.1502,-4.1459,-4.1401,-4.1357,-4.1294,-4.1284,-4.1287,-4.1309,-4.1336,-4.1318,-4.1169,-4.1281,-4.1279,-4.1278,-4.1277,-4.1277,-4.2097,-4.2094,-4.203,-4.1996,-4.1952,-4.1911,-4.1898,-4.1839,-4.1806,-4.1751,-4.1701,-4.1667,-4.1602,-4.1518,-4.1478,-4.1448,-4.1416,-4.1423,-4.1424,-4.1426,-4.1434,-4.1343,-4.1437,-4.1437,-4.1436,-4.1436,-4.1435,0,-4.2224,-4.2178,-4.2148,-4.2086,-4.2058,-4.2002,-4.1948,-4.1927,-4.1899,-4.1845,-4.1807,-4.1761,-4.1718,-4.1641,-4.1591,-4.1581,-4.155,-4.157,-4.1569,-4.1558,-4.1467,-4.1467,-4.1595,-4.1595,-4.1595,-4.1595,-4.1595,-4.1595,-4.2287,-4.2276,-4.2231,-4.2196,-4.2149,-4.2116,-4.2089,-4.2048,-4.2004,-4.1957,-4.1921,-4.1872,-4.1806,-4.1749,-4.1706,-4.1684,-4.1667,-4.1696,-4.1665,-4.1581,-4.1566,-4.1551,-4.1551,-4.1694,-4.1695,-4.1758,-4.1759,-4.1759]}]]